Location: Unspecified
(0.0000°N, 0.0000°E)
Time: 17:57:54
(UTC+00:00)

STARLINK 1054 - Pass Details

Date: 23 January 2020
Orbit: 548 x 551 km, 53.0° (Epoch: 17 January)

Event Time Altitude Azimuth Distance (km) Brightness Sun altitude
Exits shadow 04:54:35 37° 262° (W) 849 4.1 -18.1°
Maximum altitude 04:55:37 47° 304° (NW) 730 3.8 -17.9°
Drops below altitude 10° 04:59:34 10° 18° (NNE) 1,807 6.2 -16.9°
Sets 05:01:51 0° 24° (NNE) 2,697 7.2 -16.4°
